User: anonymous   Login
Location: Rio de Janeiro
(22.9068°S, 43.1729°W)
Time: 02:17:16
(UTC-03:00)
Language:

CUBEBUG 2 - Orbit

View from above orbital plane
View from above orbital plane
View from above satellite
View from above satellite

Ground track
Ground track

The orbit data is extracted from the following two-line orbital elements,

1 39440U 13066AA  24106.42711858  .00005766  00000-0  69306-3 0  9996
2 39440  97.8088  51.5082 0072650 118.3893 242.4669 14.82437116559038
Epoch (UTC): 15 April 2024 10:15:03
Eccentricity: 0.0072650
inclination: 97.8088°
perigee height: 571 km
apogee height: 672 km
right ascension of ascending node: 51.5082°
argument of perigee: 118.3893°
revolutions per day: 14.82437116
mean anomaly at epoch: 242.4669°
orbit number at epoch: 55903

The dashed part of the orbit path shows where the satellite is in the earth's shadow,  

DLR